[Date Prev][Date Next][Thread Prev][Thread Next] - [Date Index][Thread Index][Author Index]

2 Line ISS Keps 3-19



ISS
1 25544U 98067A   06077.98770461  .00009939  00000-0  71171-4 0  5562
2 25544 051.6442 291.5996 0008839 021.7253 133.5822 15.74426875418942
----
Via the sarex mailing list at AMSAT.ORG courtesy of AMSAT-NA.
To unsubscribe, send "unsubscribe sarex" to Majordomo@amsat.org



AMSAT Top AMSAT Home